Year,Month,Day,Hour,Minute,Value (Times are PST for temperature in C)
2015,06,22,00,00,17.00
2015,06,22,00,01,17.00
2015,06,22,00,02,16.90
2015,06,22,00,03,16.90
2015,06,22,00,04,16.90
2015,06,22,00,05,16.90
2015,06,22,00,06,16.90
2015,06,22,00,07,16.80
2015,06,22,00,08,16.80
2015,06,22,00,09,16.80
2015,06,22,00,10,16.80
2015,06,22,00,11,16.80
2015,06,22,00,12,16.70
2015,06,22,00,13,16.70
2015,06,22,00,14,16.70
2015,06,22,00,15,16.70
2015,06,22,00,16,16.70
2015,06,22,00,17,16.70
2015,06,22,00,18,16.70
2015,06,22,00,19,16.70
2015,06,22,00,20,16.70
2015,06,22,00,21,16.70
2015,06,22,00,22,16.70
2015,06,22,00,23,16.70
2015,06,22,00,24,16.70
2015,06,22,00,25,16.70
2015,06,22,00,26,16.70
2015,06,22,00,27,16.70
2015,06,22,00,28,16.60
2015,06,22,00,29,16.50
2015,06,22,00,30,16.40
2015,06,22,00,31,16.30
2015,06,22,00,32,16.20
2015,06,22,00,33,16.20
2015,06,22,00,34,16.20
2015,06,22,00,35,16.20
2015,06,22,00,36,16.10
2015,06,22,00,37,16.10
2015,06,22,00,38,16.10
2015,06,22,00,39,16.10
2015,06,22,00,40,16.10
2015,06,22,00,41,16.10
2015,06,22,00,42,16.10
2015,06,22,00,43,16.10
2015,06,22,00,44,16.10
2015,06,22,00,45,16.10
2015,06,22,00,46,16.10
2015,06,22,00,47,16.10
2015,06,22,00,48,16.10
2015,06,22,00,49,16.10
2015,06,22,00,50,16.10
2015,06,22,00,51,16.10
2015,06,22,00,52,16.10
2015,06,22,00,53,16.10
2015,06,22,00,54,16.10
2015,06,22,00,55,16.10
2015,06,22,00,56,16.10
2015,06,22,00,57,16.10
2015,06,22,00,58,16.10
2015,06,22,00,59,16.10
2015,06,22,01,00,16.10
2015,06,22,01,01,16.10
2015,06,22,01,02,16.10
2015,06,22,01,03,16.00
2015,06,22,01,04,15.90
2015,06,22,01,05,15.90
2015,06,22,01,06,15.90
2015,06,22,01,07,15.90
2015,06,22,01,08,15.90
2015,06,22,01,09,15.80
2015,06,22,01,10,15.80
2015,06,22,01,11,15.80
2015,06,22,01,12,15.80
2015,06,22,01,13,15.80
2015,06,22,01,14,15.90
2015,06,22,01,15,15.90
2015,06,22,01,16,15.90
2015,06,22,01,17,15.90
2015,06,22,01,18,15.90
2015,06,22,01,19,15.90
2015,06,22,01,20,15.90
2015,06,22,01,21,15.90
2015,06,22,01,22,15.80
2015,06,22,01,23,15.80
2015,06,22,01,24,15.80
2015,06,22,01,25,15.80
2015,06,22,01,26,15.80
2015,06,22,01,27,15.80
2015,06,22,01,28,15.80
2015,06,22,01,29,15.80
2015,06,22,01,30,15.80
2015,06,22,01,31,15.70
2015,06,22,01,32,15.70
2015,06,22,01,33,15.70
2015,06,22,01,34,15.70
2015,06,22,01,35,15.80
2015,06,22,01,36,15.80
2015,06,22,01,37,15.80
2015,06,22,01,38,15.80
2015,06,22,01,39,15.80
2015,06,22,01,40,15.80
2015,06,22,01,41,15.80
2015,06,22,01,42,15.80
2015,06,22,01,43,15.80
2015,06,22,01,44,15.80
2015,06,22,01,45,15.80
2015,06,22,01,46,15.80
2015,06,22,01,47,15.80
2015,06,22,01,48,15.80
2015,06,22,01,49,15.80
2015,06,22,01,50,15.80
2015,06,22,01,51,15.80
2015,06,22,01,52,15.80
2015,06,22,01,53,15.80
2015,06,22,01,54,15.80
2015,06,22,01,55,15.80
2015,06,22,01,56,15.80
2015,06,22,01,57,15.90
2015,06,22,01,58,15.90
2015,06,22,01,59,16.10
2015,06,22,02,00,16.10
2015,06,22,02,01,16.20
2015,06,22,02,02,16.30
2015,06,22,02,03,16.40
2015,06,22,02,04,16.40
2015,06,22,02,05,16.50
2015,06,22,02,06,16.60
2015,06,22,02,07,16.60
2015,06,22,02,08,16.60
2015,06,22,02,09,16.70
2015,06,22,02,10,16.70
2015,06,22,02,11,16.80
2015,06,22,02,12,16.80
2015,06,22,02,13,16.90
2015,06,22,02,14,16.90
2015,06,22,02,15,16.90
2015,06,22,02,16,17.00
2015,06,22,02,17,17.00
2015,06,22,02,18,17.00
2015,06,22,02,19,16.90
2015,06,22,02,20,16.90
2015,06,22,02,21,16.90
2015,06,22,02,22,16.80
2015,06,22,02,23,16.80
2015,06,22,02,24,16.80
2015,06,22,02,25,16.80
2015,06,22,02,26,16.80
2015,06,22,02,27,16.80
2015,06,22,02,28,16.80
2015,06,22,02,29,16.70
2015,06,22,02,30,16.70
2015,06,22,02,31,16.70
2015,06,22,02,32,16.70
2015,06,22,02,33,16.70
2015,06,22,02,34,16.70
2015,06,22,02,35,16.70
2015,06,22,02,36,16.70
2015,06,22,02,37,16.70
2015,06,22,02,38,16.70
2015,06,22,02,39,16.70
2015,06,22,02,40,16.70
2015,06,22,02,41,16.60
2015,06,22,02,42,16.40
2015,06,22,02,43,16.20
2015,06,22,02,44,16.10
2015,06,22,02,45,16.00
2015,06,22,02,46,15.90
2015,06,22,02,47,15.80
2015,06,22,02,48,15.80
2015,06,22,02,49,15.70
2015,06,22,02,50,15.60
2015,06,22,02,51,15.40
2015,06,22,02,52,15.30
2015,06,22,02,53,15.10
2015,06,22,02,54,15.00
2015,06,22,02,55,14.90
2015,06,22,02,56,14.80
2015,06,22,02,57,14.70
2015,06,22,02,58,14.60
2015,06,22,02,59,14.50
2015,06,22,03,00,14.40
2015,06,22,03,01,14.40
2015,06,22,03,02,14.30
2015,06,22,03,03,14.20
2015,06,22,03,04,14.20
2015,06,22,03,05,14.20
2015,06,22,03,06,14.20
2015,06,22,03,07,14.20
2015,06,22,03,08,14.20
2015,06,22,03,09,14.20
2015,06,22,03,10,14.20
2015,06,22,03,11,14.30
2015,06,22,03,12,14.30
2015,06,22,03,13,14.30
2015,06,22,03,14,14.30
2015,06,22,03,15,14.30
2015,06,22,03,16,14.30
2015,06,22,03,17,14.20
2015,06,22,03,18,14.20
2015,06,22,03,19,14.20
2015,06,22,03,20,14.20
2015,06,22,03,21,14.20
2015,06,22,03,22,14.20
2015,06,22,03,23,14.20
2015,06,22,03,24,14.20
2015,06,22,03,25,14.20
2015,06,22,03,26,14.20
2015,06,22,03,27,14.10
2015,06,22,03,28,14.10
2015,06,22,03,29,14.10
2015,06,22,03,30,14.10
2015,06,22,03,31,14.10
2015,06,22,03,32,14.10
2015,06,22,03,33,14.10
2015,06,22,03,34,14.10
2015,06,22,03,35,14.10
2015,06,22,03,36,14.10
2015,06,22,03,37,14.10
2015,06,22,03,38,14.10
2015,06,22,03,39,14.10
2015,06,22,03,40,14.10
2015,06,22,03,41,14.10
2015,06,22,03,42,14.10
2015,06,22,03,43,14.10
2015,06,22,03,44,14.10
2015,06,22,03,45,14.20
2015,06,22,03,46,14.10
2015,06,22,03,47,14.10
2015,06,22,03,48,14.10
2015,06,22,03,49,14.20
2015,06,22,03,50,14.20
2015,06,22,03,51,14.20
2015,06,22,03,52,14.20
2015,06,22,03,53,14.20
2015,06,22,03,54,14.20
2015,06,22,03,55,14.20
2015,06,22,03,56,14.20
2015,06,22,03,57,14.20
2015,06,22,03,58,14.20
2015,06,22,03,59,14.20
2015,06,22,04,00,14.20
2015,06,22,04,01,14.20
2015,06,22,04,02,14.20
2015,06,22,04,03,14.30
2015,06,22,04,04,14.30
2015,06,22,04,05,14.30
2015,06,22,04,06,14.30
2015,06,22,04,07,14.30
2015,06,22,04,08,14.30
2015,06,22,04,09,14.30
2015,06,22,04,10,14.30
2015,06,22,04,11,14.30
2015,06,22,04,12,14.30
2015,06,22,04,13,14.30
2015,06,22,04,14,14.30
2015,06,22,04,15,14.30
2015,06,22,04,16,14.30
2015,06,22,04,17,14.30
2015,06,22,04,18,14.30
2015,06,22,04,19,14.30
2015,06,22,04,20,14.30
2015,06,22,04,21,14.30
2015,06,22,04,22,14.30
2015,06,22,04,23,14.30
2015,06,22,04,24,14.20
2015,06,22,04,25,14.20
2015,06,22,04,26,14.20
2015,06,22,04,27,14.20
2015,06,22,04,28,14.20
2015,06,22,04,29,14.20
2015,06,22,04,30,14.20
2015,06,22,04,31,14.20
2015,06,22,04,32,14.20
2015,06,22,04,33,14.20
2015,06,22,04,34,14.20
2015,06,22,04,35,14.20
2015,06,22,04,36,14.20
2015,06,22,04,37,14.20
2015,06,22,04,38,14.20
2015,06,22,04,39,14.20
2015,06,22,04,40,14.20
2015,06,22,04,41,14.10
2015,06,22,04,42,14.10
2015,06,22,04,43,14.10
2015,06,22,04,44,14.10
2015,06,22,04,45,14.10
2015,06,22,04,46,14.10
2015,06,22,04,47,14.00
2015,06,22,04,48,14.00
2015,06,22,04,49,14.00
2015,06,22,04,50,14.00
2015,06,22,04,51,14.00
2015,06,22,04,52,14.00
2015,06,22,04,53,14.00
2015,06,22,04,54,14.00
2015,06,22,04,55,14.00
2015,06,22,04,56,13.90
2015,06,22,04,57,13.90
2015,06,22,04,58,13.90
2015,06,22,04,59,13.90
2015,06,22,05,00,13.90
2015,06,22,05,01,13.80
2015,06,22,05,02,13.80
2015,06,22,05,03,13.70
2015,06,22,05,04,13.70
2015,06,22,05,05,13.70
2015,06,22,05,06,13.70
2015,06,22,05,07,13.70
2015,06,22,05,08,13.70
2015,06,22,05,09,13.70
2015,06,22,05,10,13.70
2015,06,22,05,11,13.70
2015,06,22,05,12,13.70
2015,06,22,05,13,13.60
2015,06,22,05,14,13.60
2015,06,22,05,15,13.60
2015,06,22,05,16,13.60
2015,06,22,05,17,13.60
2015,06,22,05,18,13.60
2015,06,22,05,19,13.50
2015,06,22,05,20,13.50
2015,06,22,05,21,13.50
2015,06,22,05,22,13.50
2015,06,22,05,23,13.50
2015,06,22,05,24,13.50
2015,06,22,05,25,13.50
2015,06,22,05,26,13.50
2015,06,22,05,27,13.50
2015,06,22,05,28,13.50
2015,06,22,05,29,13.50
2015,06,22,05,30,13.50
2015,06,22,05,31,13.40
2015,06,22,05,32,13.40
2015,06,22,05,33,13.40
2015,06,22,05,34,13.30
2015,06,22,05,35,13.30
2015,06,22,05,36,13.30
2015,06,22,05,37,13.30
2015,06,22,05,38,13.30
2015,06,22,05,39,13.30
2015,06,22,05,40,13.30
2015,06,22,05,41,13.30
2015,06,22,05,42,13.30
2015,06,22,05,43,13.40
2015,06,22,05,44,13.40
2015,06,22,05,45,13.40
2015,06,22,05,46,13.40
2015,06,22,05,47,13.40
2015,06,22,05,48,13.40
2015,06,22,05,49,13.40
2015,06,22,05,50,13.30
2015,06,22,05,51,13.30
2015,06,22,05,52,13.30
2015,06,22,05,53,13.30
2015,06,22,05,54,13.20
2015,06,22,05,55,13.20
2015,06,22,05,56,13.20
2015,06,22,05,57,13.20
2015,06,22,05,58,13.20
2015,06,22,05,59,13.20
2015,06,22,06,00,13.20
2015,06,22,06,01,13.20
2015,06,22,06,02,13.10
2015,06,22,06,03,13.10
2015,06,22,06,04,13.10
2015,06,22,06,05,13.00
2015,06,22,06,06,13.00
2015,06,22,06,07,13.00
2015,06,22,06,08,13.00
2015,06,22,06,09,13.00
2015,06,22,06,10,13.00
2015,06,22,06,11,13.00
2015,06,22,06,12,13.00
2015,06,22,06,13,13.00
2015,06,22,06,14,13.00
2015,06,22,06,15,13.00
2015,06,22,06,16,13.10
2015,06,22,06,17,13.10
2015,06,22,06,18,13.10
2015,06,22,06,19,13.10
2015,06,22,06,20,13.10
2015,06,22,06,21,13.10
2015,06,22,06,22,13.10
2015,06,22,06,23,13.10
2015,06,22,06,24,13.20
2015,06,22,06,25,13.20
2015,06,22,06,26,13.30
2015,06,22,06,27,13.30
2015,06,22,06,28,13.30
2015,06,22,06,29,13.30
2015,06,22,06,30,13.30
2015,06,22,06,31,13.30
2015,06,22,06,32,13.40
2015,06,22,06,33,13.40
2015,06,22,06,34,13.40
2015,06,22,06,35,13.40
2015,06,22,06,36,13.40
2015,06,22,06,37,13.50
2015,06,22,06,38,13.50
2015,06,22,06,39,13.50
2015,06,22,06,40,13.50
2015,06,22,06,41,13.50
2015,06,22,06,42,13.60
2015,06,22,06,43,13.60
2015,06,22,06,44,13.60
2015,06,22,06,45,13.70
2015,06,22,06,46,13.70
2015,06,22,06,47,13.70
2015,06,22,06,48,13.60
2015,06,22,06,49,13.60
2015,06,22,06,50,13.50
2015,06,22,06,51,13.50
2015,06,22,06,52,13.50
2015,06,22,06,53,13.50
2015,06,22,06,54,13.50
2015,06,22,06,55,13.50
2015,06,22,06,56,13.50
2015,06,22,06,57,13.50
2015,06,22,06,58,13.50
2015,06,22,06,59,13.50
2015,06,22,07,00,13.50
2015,06,22,07,01,13.40
2015,06,22,07,02,13.40
2015,06,22,07,03,13.30
2015,06,22,07,04,13.30
2015,06,22,07,05,13.30
2015,06,22,07,06,13.30
2015,06,22,07,07,13.30
2015,06,22,07,08,13.30
2015,06,22,07,09,13.30
2015,06,22,07,10,13.30
2015,06,22,07,11,13.30
2015,06,22,07,12,13.40
2015,06,22,07,13,13.40
2015,06,22,07,14,13.50
2015,06,22,07,15,13.50
2015,06,22,07,16,13.60
2015,06,22,07,17,13.70
2015,06,22,07,18,13.70
2015,06,22,07,19,13.80
2015,06,22,07,20,13.80
2015,06,22,07,21,13.90
2015,06,22,07,22,14.00
2015,06,22,07,23,14.00
2015,06,22,07,24,14.00
2015,06,22,07,25,14.00
2015,06,22,07,26,14.00
2015,06,22,07,27,14.00
2015,06,22,07,28,14.00
2015,06,22,07,29,14.00
2015,06,22,07,30,14.00
2015,06,22,07,31,14.00
2015,06,22,07,32,14.00
2015,06,22,07,33,14.00
2015,06,22,07,34,14.00
2015,06,22,07,35,14.00
2015,06,22,07,36,14.10
2015,06,22,07,37,14.10
2015,06,22,07,38,14.10
2015,06,22,07,39,14.10
2015,06,22,07,40,14.10
2015,06,22,07,41,14.10
2015,06,22,07,42,14.20
2015,06,22,07,43,14.20
2015,06,22,07,44,14.20
2015,06,22,07,45,14.20
2015,06,22,07,46,14.20
2015,06,22,07,47,14.30
2015,06,22,07,48,14.30
2015,06,22,07,49,14.30
2015,06,22,07,50,14.40
2015,06,22,07,51,14.40
2015,06,22,07,52,14.40
2015,06,22,07,53,14.40
2015,06,22,07,54,14.50
2015,06,22,07,55,14.50
2015,06,22,07,56,14.50
2015,06,22,07,57,14.60
2015,06,22,07,58,14.60
2015,06,22,07,59,14.60
2015,06,22,08,00,14.70
2015,06,22,08,01,14.70
2015,06,22,08,02,14.80
2015,06,22,08,03,14.80
2015,06,22,08,04,14.90
2015,06,22,08,05,15.00
2015,06,22,08,06,15.00
2015,06,22,08,07,15.00
2015,06,22,08,08,15.10
2015,06,22,08,09,15.10
2015,06,22,08,10,15.20
2015,06,22,08,11,15.20
2015,06,22,08,12,15.30
2015,06,22,08,13,15.30
2015,06,22,08,14,15.30
2015,06,22,08,15,15.40
2015,06,22,08,16,15.50
2015,06,22,08,17,15.50
2015,06,22,08,18,15.60
2015,06,22,08,19,15.60
2015,06,22,08,20,15.60
2015,06,22,08,21,15.60
2015,06,22,08,22,15.60
2015,06,22,08,23,15.70
2015,06,22,08,24,15.70
2015,06,22,08,25,15.70
2015,06,22,08,26,15.80
2015,06,22,08,27,15.80
2015,06,22,08,28,15.80
2015,06,22,08,29,15.90
2015,06,22,08,30,15.90
2015,06,22,08,31,16.00
2015,06,22,08,32,16.00
2015,06,22,08,33,16.00
2015,06,22,08,34,16.10
2015,06,22,08,35,16.10
2015,06,22,08,36,16.10
2015,06,22,08,37,16.10
2015,06,22,08,38,16.20
2015,06,22,08,39,16.30
2015,06,22,08,40,16.30
2015,06,22,08,41,16.40
2015,06,22,08,42,16.40
2015,06,22,08,43,16.40
2015,06,22,08,44,16.40
2015,06,22,08,45,16.40
2015,06,22,08,46,16.50
2015,06,22,08,47,16.60
2015,06,22,08,48,16.60
2015,06,22,08,49,16.60
2015,06,22,08,50,16.60
2015,06,22,08,51,16.70
2015,06,22,08,52,16.70
2015,06,22,08,53,16.60
2015,06,22,08,54,16.60
2015,06,22,08,55,16.70
2015,06,22,08,56,16.70
2015,06,22,08,57,16.70
2015,06,22,08,58,16.70
2015,06,22,08,59,16.70
2015,06,22,09,00,16.70
2015,06,22,09,01,16.80
2015,06,22,09,02,16.70
2015,06,22,09,03,16.70
2015,06,22,09,04,16.70
2015,06,22,09,05,16.70
2015,06,22,09,06,16.70
2015,06,22,09,07,16.70
2015,06,22,09,08,16.70
2015,06,22,09,09,16.70
2015,06,22,09,10,16.80
2015,06,22,09,11,16.80
2015,06,22,09,12,16.80
2015,06,22,09,13,16.80
2015,06,22,09,14,16.80
2015,06,22,09,15,16.80
2015,06,22,09,16,16.80
2015,06,22,09,17,16.80
2015,06,22,09,18,16.80
2015,06,22,09,19,16.80
2015,06,22,09,20,16.80
2015,06,22,09,21,16.90
2015,06,22,09,22,16.90
2015,06,22,09,23,16.90
2015,06,22,09,24,16.80
2015,06,22,09,25,16.80
2015,06,22,09,26,16.80
2015,06,22,09,27,16.80
2015,06,22,09,28,16.80
2015,06,22,09,29,16.80
2015,06,22,09,30,16.80
2015,06,22,09,31,16.80
2015,06,22,09,32,16.80
2015,06,22,09,33,16.90
2015,06,22,09,34,17.00
2015,06,22,09,35,17.00
2015,06,22,09,36,17.10
2015,06,22,09,37,17.20
2015,06,22,09,38,17.30
2015,06,22,09,39,17.30
2015,06,22,09,40,17.30
2015,06,22,09,41,17.30
2015,06,22,09,42,17.30
2015,06,22,09,43,17.30
2015,06,22,09,44,17.30
2015,06,22,09,45,17.50
2015,06,22,09,46,17.50
2015,06,22,09,47,17.60
2015,06,22,09,48,17.70
2015,06,22,09,49,17.70
2015,06,22,09,50,17.70
2015,06,22,09,51,17.70
2015,06,22,09,52,17.60
2015,06,22,09,53,17.60
2015,06,22,09,54,17.60
2015,06,22,09,55,17.50
2015,06,22,09,56,17.50
2015,06,22,09,57,17.50
2015,06,22,09,58,17.40
2015,06,22,09,59,17.30
2015,06,22,10,00,17.20
2015,06,22,10,01,17.20
2015,06,22,10,02,17.20
2015,06,22,10,03,17.30
2015,06,22,10,04,17.30
2015,06,22,10,05,17.20
2015,06,22,10,06,17.20
2015,06,22,10,07,17.20
2015,06,22,10,08,17.20
2015,06,22,10,09,17.30
2015,06,22,10,10,17.20
2015,06,22,10,11,17.00
2015,06,22,10,12,17.00
2015,06,22,10,13,17.10
2015,06,22,10,14,17.10
2015,06,22,10,15,17.00
2015,06,22,10,16,16.90
2015,06,22,10,17,16.90
2015,06,22,10,18,16.90
2015,06,22,10,19,16.90
2015,06,22,10,20,17.00
2015,06,22,10,21,16.90
2015,06,22,10,22,16.90
2015,06,22,10,23,16.90
2015,06,22,10,24,17.00
2015,06,22,10,25,17.10
2015,06,22,10,26,17.30
2015,06,22,10,27,17.30
2015,06,22,10,28,17.40
2015,06,22,10,29,17.40
2015,06,22,10,30,17.50
2015,06,22,10,31,17.50
2015,06,22,10,32,17.60
2015,06,22,10,33,17.70
2015,06,22,10,34,17.80
2015,06,22,10,35,17.90
2015,06,22,10,36,18.10
2015,06,22,10,37,18.20
2015,06,22,10,38,18.40
2015,06,22,10,39,18.60
2015,06,22,10,40,18.60
2015,06,22,10,41,18.60
2015,06,22,10,42,18.50
2015,06,22,10,43,18.50
2015,06,22,10,44,18.50
2015,06,22,10,45,18.50
2015,06,22,10,46,18.60
2015,06,22,10,47,18.70
2015,06,22,10,48,18.90
2015,06,22,10,49,18.90
2015,06,22,10,50,18.90
2015,06,22,10,51,18.80
2015,06,22,10,52,18.70
2015,06,22,10,53,18.70
2015,06,22,10,54,18.80
2015,06,22,10,55,18.80
2015,06,22,10,56,18.90
2015,06,22,10,57,19.10
2015,06,22,10,58,19.20
2015,06,22,10,59,19.30
2015,06,22,11,00,19.40
2015,06,22,11,01,19.50
2015,06,22,11,02,19.60
2015,06,22,11,03,19.70
2015,06,22,11,04,19.60
2015,06,22,11,05,19.60
2015,06,22,11,06,19.60
2015,06,22,11,07,19.50
2015,06,22,11,08,19.50
2015,06,22,11,09,19.50
2015,06,22,11,10,19.50
2015,06,22,11,11,19.60
2015,06,22,11,12,19.60
2015,06,22,11,13,19.50
2015,06,22,11,14,19.50
2015,06,22,11,15,19.50
2015,06,22,11,16,19.60
2015,06,22,11,17,19.60
2015,06,22,11,18,19.70
2015,06,22,11,19,19.80
2015,06,22,11,20,19.80
2015,06,22,11,21,19.90
2015,06,22,11,22,20.00
2015,06,22,11,23,20.20
2015,06,22,11,24,20.20
2015,06,22,11,25,20.10
2015,06,22,11,26,20.10
2015,06,22,11,27,20.20
2015,06,22,11,28,20.20
2015,06,22,11,29,20.20
2015,06,22,11,30,20.20
2015,06,22,11,31,20.30
2015,06,22,11,32,20.10
2015,06,22,11,33,20.00
2015,06,22,11,34,20.00
2015,06,22,11,35,20.10
2015,06,22,11,36,20.20
2015,06,22,11,37,20.20
2015,06,22,11,38,20.20
2015,06,22,11,39,20.10
2015,06,22,11,40,20.20
2015,06,22,11,41,20.30
2015,06,22,11,42,20.40
2015,06,22,11,43,20.50
2015,06,22,11,44,20.50
2015,06,22,11,45,20.40
2015,06,22,11,46,20.40
2015,06,22,11,47,20.50
2015,06,22,11,48,20.60
2015,06,22,11,49,20.70
2015,06,22,11,50,20.80
2015,06,22,11,51,20.80
2015,06,22,11,52,20.70
2015,06,22,11,53,20.60
2015,06,22,11,54,20.50
2015,06,22,11,55,20.50
2015,06,22,11,56,20.50
2015,06,22,11,57,20.60
2015,06,22,11,58,20.70
2015,06,22,11,59,20.70
2015,06,22,12,00,20.70
2015,06,22,12,01,20.60
2015,06,22,12,02,20.50
2015,06,22,12,03,20.60
2015,06,22,12,04,20.60
2015,06,22,12,05,20.70
2015,06,22,12,06,20.70
2015,06,22,12,07,20.80
2015,06,22,12,08,20.80
2015,06,22,12,09,20.90
2015,06,22,12,10,21.00
2015,06,22,12,11,21.00
2015,06,22,12,12,20.90
2015,06,22,12,13,21.00
2015,06,22,12,14,20.90
2015,06,22,12,15,20.90
2015,06,22,12,16,20.80
2015,06,22,12,17,20.70
2015,06,22,12,18,20.70
2015,06,22,12,19,20.70
2015,06,22,12,20,20.70
2015,06,22,12,21,20.70
2015,06,22,12,22,20.80
2015,06,22,12,23,20.90
2015,06,22,12,24,21.00
2015,06,22,12,25,21.00
2015,06,22,12,26,21.00
2015,06,22,12,27,21.10
2015,06,22,12,28,21.20
2015,06,22,12,29,21.30
2015,06,22,12,30,21.30
2015,06,22,12,31,21.30
2015,06,22,12,32,21.30
2015,06,22,12,33,21.30
2015,06,22,12,34,21.30
2015,06,22,12,35,21.30
2015,06,22,12,36,21.30
2015,06,22,12,37,21.30
2015,06,22,12,38,21.20
2015,06,22,12,39,21.10
2015,06,22,12,40,21.10
2015,06,22,12,41,21.10
2015,06,22,12,42,21.10
2015,06,22,12,43,21.20
2015,06,22,12,44,21.20
2015,06,22,12,45,21.20
2015,06,22,12,46,21.30
2015,06,22,12,47,21.40
2015,06,22,12,48,21.40
2015,06,22,12,49,21.40
2015,06,22,12,50,21.30
2015,06,22,12,51,21.30
2015,06,22,12,52,21.30
2015,06,22,12,53,21.30
2015,06,22,12,54,21.40
2015,06,22,12,55,21.40
2015,06,22,12,56,21.50
2015,06,22,12,57,21.60
2015,06,22,12,58,21.60
2015,06,22,12,59,21.60
2015,06,22,13,00,21.60
2015,06,22,13,01,21.60
2015,06,22,13,02,21.60
2015,06,22,13,03,21.50
2015,06,22,13,04,21.40
2015,06,22,13,05,21.40
2015,06,22,13,06,21.30
2015,06,22,13,07,21.30
2015,06,22,13,08,21.30
2015,06,22,13,09,21.30
2015,06,22,13,10,21.30
2015,06,22,13,11,21.30
2015,06,22,13,12,21.30
2015,06,22,13,13,21.40
2015,06,22,13,14,21.50
2015,06,22,13,15,21.60
2015,06,22,13,16,21.60
2015,06,22,13,17,21.80
2015,06,22,13,18,21.90
2015,06,22,13,19,22.00
2015,06,22,13,20,22.00
2015,06,22,13,21,22.00
2015,06,22,13,22,21.90
2015,06,22,13,23,21.90
2015,06,22,13,24,21.90
2015,06,22,13,25,21.80
2015,06,22,13,26,21.80
2015,06,22,13,27,21.70
2015,06,22,13,28,21.60
2015,06,22,13,29,21.60
2015,06,22,13,30,21.70
2015,06,22,13,31,21.70
2015,06,22,13,32,21.60
2015,06,22,13,33,21.50
2015,06,22,13,34,21.40
2015,06,22,13,35,21.30
2015,06,22,13,36,21.30
2015,06,22,13,37,21.30
2015,06,22,13,38,21.30
2015,06,22,13,39,21.30
2015,06,22,13,40,21.30
2015,06,22,13,41,21.30
2015,06,22,13,42,21.30
2015,06,22,13,43,21.40
2015,06,22,13,44,21.60
2015,06,22,13,45,21.70
2015,06,22,13,46,21.80
2015,06,22,13,47,21.80
2015,06,22,13,48,21.80
2015,06,22,13,49,21.80
2015,06,22,13,50,21.90
2015,06,22,13,51,21.90
2015,06,22,13,52,22.00
2015,06,22,13,53,22.00
2015,06,22,13,54,22.00
2015,06,22,13,55,22.00
2015,06,22,13,56,21.90
2015,06,22,13,57,21.90
2015,06,22,13,58,21.90
2015,06,22,13,59,21.90
2015,06,22,14,00,21.90
2015,06,22,14,01,21.80
2015,06,22,14,02,21.80
2015,06,22,14,03,21.80
2015,06,22,14,04,21.70
2015,06,22,14,05,21.70
2015,06,22,14,06,21.60
2015,06,22,14,07,21.60
2015,06,22,14,08,21.40
2015,06,22,14,09,21.40
2015,06,22,14,10,21.40
2015,06,22,14,11,21.30
2015,06,22,14,12,21.30
2015,06,22,14,13,21.20
2015,06,22,14,14,21.10
2015,06,22,14,15,21.10
2015,06,22,14,16,21.00
2015,06,22,14,17,21.00
2015,06,22,14,18,21.00
2015,06,22,14,19,21.00
2015,06,22,14,20,21.00
2015,06,22,14,21,21.10
2015,06,22,14,22,21.10
2015,06,22,14,23,21.20
2015,06,22,14,24,21.30
2015,06,22,14,25,21.40
2015,06,22,14,26,21.40
2015,06,22,14,27,21.40
2015,06,22,14,28,21.40
2015,06,22,14,29,21.30
2015,06,22,14,30,21.40
2015,06,22,14,31,21.40
2015,06,22,14,32,21.40
2015,06,22,14,33,21.50
2015,06,22,14,34,21.60
2015,06,22,14,35,21.60
2015,06,22,14,36,21.70
2015,06,22,14,37,21.70
2015,06,22,14,38,21.70
2015,06,22,14,39,21.80
2015,06,22,14,40,21.90
2015,06,22,14,41,21.90
2015,06,22,14,42,22.00
2015,06,22,14,43,21.90
2015,06,22,14,44,21.70
2015,06,22,14,45,21.60
2015,06,22,14,46,21.50
2015,06,22,14,47,21.30
2015,06,22,14,48,21.10
2015,06,22,14,49,20.90
2015,06,22,14,50,20.90
2015,06,22,14,51,20.90
2015,06,22,14,52,21.00
2015,06,22,14,53,21.20
2015,06,22,14,54,21.40
2015,06,22,14,55,21.60
2015,06,22,14,56,21.70
2015,06,22,14,57,21.90
2015,06,22,14,58,22.10
2015,06,22,14,59,22.20
2015,06,22,15,00,22.20
2015,06,22,15,01,22.30
2015,06,22,15,02,22.30
2015,06,22,15,03,22.40
2015,06,22,15,04,22.40
2015,06,22,15,05,22.40
2015,06,22,15,06,22.50
2015,06,22,15,07,22.60
2015,06,22,15,08,22.60
2015,06,22,15,09,22.60
2015,06,22,15,10,22.70
2015,06,22,15,11,22.70
2015,06,22,15,12,22.80
2015,06,22,15,13,22.70
2015,06,22,15,14,22.70
2015,06,22,15,15,22.80
2015,06,22,15,16,23.00
2015,06,22,15,17,23.10
2015,06,22,15,18,23.30
2015,06,22,15,19,23.40
2015,06,22,15,20,23.50
2015,06,22,15,21,23.60
2015,06,22,15,22,23.80
2015,06,22,15,23,23.90
2015,06,22,15,24,23.80
2015,06,22,15,25,23.80
2015,06,22,15,26,23.80
2015,06,22,15,27,23.70
2015,06,22,15,28,23.70
2015,06,22,15,29,23.70
2015,06,22,15,30,23.70
2015,06,22,15,31,23.70
2015,06,22,15,32,23.80
2015,06,22,15,33,23.90
2015,06,22,15,34,23.90
2015,06,22,15,35,23.80
2015,06,22,15,36,23.80
2015,06,22,15,37,23.80
2015,06,22,15,38,23.80
2015,06,22,15,39,23.80
2015,06,22,15,40,23.90
2015,06,22,15,41,23.90
2015,06,22,15,42,23.90
2015,06,22,15,43,23.80
2015,06,22,15,44,23.80
2015,06,22,15,45,23.80
2015,06,22,15,46,23.70
2015,06,22,15,47,23.70
2015,06,22,15,48,23.60
2015,06,22,15,49,23.50
2015,06,22,15,50,23.30
2015,06,22,15,51,23.30
2015,06,22,15,52,23.30
2015,06,22,15,53,23.30
2015,06,22,15,54,23.30
2015,06,22,15,55,23.30
2015,06,22,15,56,23.30
2015,06,22,15,57,23.30
2015,06,22,15,58,23.40
2015,06,22,15,59,23.50
2015,06,22,16,00,23.60
2015,06,22,16,01,23.60
2015,06,22,16,02,23.60
2015,06,22,16,03,23.70
2015,06,22,16,04,23.70
2015,06,22,16,05,23.70
2015,06,22,16,06,23.80
2015,06,22,16,07,23.90
2015,06,22,16,08,23.90
2015,06,22,16,09,23.80
2015,06,22,16,10,23.80
2015,06,22,16,11,23.70
2015,06,22,16,12,23.70
2015,06,22,16,13,23.70
2015,06,22,16,14,23.70
2015,06,22,16,15,23.70
2015,06,22,16,16,23.70
2015,06,22,16,17,23.60
2015,06,22,16,18,23.50
2015,06,22,16,19,23.40
2015,06,22,16,20,23.30
2015,06,22,16,21,23.30
2015,06,22,16,22,23.30
2015,06,22,16,23,23.30
2015,06,22,16,24,23.20
2015,06,22,16,25,23.30
2015,06,22,16,26,23.30
2015,06,22,16,27,23.30
2015,06,22,16,28,23.30
2015,06,22,16,29,23.30
2015,06,22,16,30,23.40
2015,06,22,16,31,23.50
2015,06,22,16,32,23.60
2015,06,22,16,33,23.70
2015,06,22,16,34,23.70
2015,06,22,16,35,23.70
2015,06,22,16,36,23.70
2015,06,22,16,37,23.60
2015,06,22,16,38,23.50
2015,06,22,16,39,23.30
2015,06,22,16,40,23.30
2015,06,22,16,41,23.20
2015,06,22,16,42,23.10
2015,06,22,16,43,23.00
2015,06,22,16,44,22.90
2015,06,22,16,45,22.90
2015,06,22,16,46,22.90
2015,06,22,16,47,22.90
2015,06,22,16,48,22.80
2015,06,22,16,49,22.80
2015,06,22,16,50,22.70
2015,06,22,16,51,22.70
2015,06,22,16,52,22.70
2015,06,22,16,53,22.60
2015,06,22,16,54,22.60
2015,06,22,16,55,22.60
2015,06,22,16,56,22.60
2015,06,22,16,57,22.60
2015,06,22,16,58,22.70
2015,06,22,16,59,22.70
2015,06,22,17,00,22.70
2015,06,22,17,01,22.70
2015,06,22,17,02,22.70
2015,06,22,17,03,22.70
2015,06,22,17,04,22.70
2015,06,22,17,05,22.70
2015,06,22,17,06,22.70
2015,06,22,17,07,22.70
2015,06,22,17,08,22.70
2015,06,22,17,09,22.70
2015,06,22,17,10,22.70
2015,06,22,17,11,22.70
2015,06,22,17,12,22.80
2015,06,22,17,13,22.80
2015,06,22,17,14,22.90
2015,06,22,17,15,22.90
2015,06,22,17,16,23.00
2015,06,22,17,17,23.10
2015,06,22,17,18,23.20
2015,06,22,17,19,23.30